Tracking 27122 objects as of 25-Mar-2023
HD Live streaming from Space Station
objects crossing your sky now

STARLINK-4518

Track STARLINK-4518 now!
10-day predictions
STARLINK-4518 is classified as:


NORAD ID: 53550
Int'l Code: 2022-101Z
Perigee: 545.8 km
Apogee: 547.6 km
Inclination: 53.2 °
Period: 95.4 minutes
Semi major axis: 6917 km
RCS: Unknown
Launch date: August 19, 2022
Source: United States (US)
Launch site: AIR FORCE EASTERN TEST RANGE (AFETR)
Your satellite tracking list
Your tracking list is empty




NASA's NSSDC Master Catalog

Two Line Element Set (TLE):
1 53550U 22101Z   23083.70199500  .00029074  00000-0  18342-2 0  9993
2 53550  53.2153 236.8612 0001308  83.2791 276.8350 15.08901913 33777
Source of the keplerian elements: AFSPC